Theta_e
317 317 315 317 319 319 319 320 320 320 321 321 320 319 318 316 316 314 309 310 309 313 310 310 309 309 310 311 311 311 311 310 309 307 308 309 308 308 315 322 326 328 330 330 329 328 328 328 328 328 330 327 331 331 329 328 327 325 325 324 324 324 324 323 323 322 322 321 321 321 320 320 319 319 318 318 318 318 317 317 317 316 316 316 315
318 315 316 317 316 315 317 318 319 319 320 320 320 318 318 315 314 312 312 311 311 313 309 311 312 309 310 310 312 315 317 315 311 309 309 309 308 306 312 319 323 328 327 327 326 326 326 326 327 326 326 326 331 329 328 327 326 325 325 323 323 323 323 322 322 321 320 320 320 320 319 319 318 318 318 318 317 317 317 316 316 316 315 315 315
319 318 317 317 315 314 315 315 316 316 318 320 319 319 317 315 314 313 312 310 312 310 309 311 311 311 310 310 313 312 316 315 310 308 310 312 310 309 311 315 319 324 325 324 325 325 325 325 327 326 325 327 331 329 327 325 324 324 324 323 323 323 322 322 322 321 320 320 320 319 319 318 318 317 317 317 316 316 316 315 315 315 315 314 314
319 318 318 317 316 315 315 314 316 315 316 317 316 314 314 313 311 311 310 309 311 310 309 309 311 312 309 310 310 312 312 312 309 308 309 311 310 310 311 309 314 320 321 324 324 324 323 325 328 330 326 330 331 329 326 325 324 324 324 323 323 323 322 321 321 321 320 320 319 318 318 318 317 316 316 316 316 315 315 315 314 314 314 314 313
319 319 317 318 317 316 316 315 316 316 315 315 315 312 310 310 312 310 309 308 308 312 309 308 308 313 309 311 309 311 311 311 308 307 309 313 314 313 314 314 313 316 316 318 322 323 325 327 328 329 330 330 329 327 325 324 324 324 323 323 323 322 322 321 320 320 319 319 318 318 317 317 316 316 316 316 315 315 314 314 314 314 314 313 313
320 318 318 318 318 317 317 317 316 315 314 313 314 313 313 311 313 311 313 310 311 312 310 311 310 308 310 310 308 312 310 310 310 311 314 315 314 315 316 314 312 313 313 314 316 319 322 325 326 327 329 329 326 325 323 323 323 323 323 323 323 323 322 320 320 320 319 319 318 317 317 316 315 315 315 315 314 314 314 313 313 313 313 312 312
320 320 318 318 318 318 317 318 317 314 314 314 315 313 313 314 313 312 311 309 308 311 310 311 310 312 313 308 311 309 307 311 309 311 314 315 314 315 316 314 312 313 313 311 309 310 318 324 326 327 328 329 324 324 323 323 322 322 323 323 323 322 322 321 320 320 319 318 317 316 316 315 315 315 314 314 314 314 314 313 313 312 312 312 312
320 319 319 318 318 318 318 318 317 315 315 313 312 314 312 312 312 311 311 312 309 312 310 310 310 311 310 309 309 307 308 306 308 310 312 313 314 314 314 313 312 312 311 310 308 305 313 318 324 325 326 325 323 323 322 322 322 322 322 322 322 322 321 320 319 318 318 317 316 315 315 314 314 314 314 313 313 312 312 312 312 312 312 312 312
321 320 320 319 318 318 318 318 316 316 315 314 313 314 313 314 312 310 312 314 311 311 311 308 311 311 310 309 310 309 309 310 310 310 311 312 312 313 313 312 311 309 312 311 307 305 309 314 318 320 318 325 322 322 322 322 322 322 321 321 321 321 320 319 319 318 317 316 315 315 314 314 314 313 313 313 312 312 312 311 311 312 311 312 311
321 320 320 320 319 318 318 318 317 316 315 314 315 314 312 313 314 312 312 312 313 312 313 311 309 310 310 310 311 307 310 309 308 306 311 312 312 312 313 313 310 310 310 309 306 304 302 307 313 313 313 319 324 321 322 321 321 321 321 321 320 320 319 318 318 317 316 315 315 314 314 313 313 312 312 312 311 312 312 311 311 311 311 312 312
321 320 320 320 319 318 318 316 317 316 316 315 313 312 312 311 313 314 310 313 315 313 314 310 309 307 309 311 310 310 310 308 307 308 310 313 313 312 311 311 309 307 307 304 302 300 299 298 299 300 304 314 320 321 323 321 321 321 321 320 320 320 319 318 317 316 316 315 314 314 313 313 313 312 312 311 311 311 311 311 311 311 311 311 311
320 321 320 319 319 318 318 317 316 316 316 315 314 314 314 312 312 313 313 310 309 311 308 307 306 305 309 310 308 308 309 308 306 308 309 310 312 311 311 309 307 305 306 306 301 298 297 297 298 299 301 309 313 314 316 318 320 320 321 320 319 320 318 317 316 316 316 315 314 313 313 313 312 312 312 311 310 311 311 311 311 311 311 311 311
319 320 320 318 319 319 318 316 316 316 316 317 317 316 316 315 314 312 313 313 311 309 308 307 309 311 306 307 309 309 309 305 309 308 308 310 310 311 308 306 304 304 306 305 301 297 296 296 297 297 299 299 303 309 311 313 314 320 320 319 320 320 318 317 316 316 315 315 314 312 313 313 312 312 311 311 311 310 311 311 311 310 310 310 310
318 319 319 319 319 318 318 318 317 316 317 317 316 314 315 314 312 312 309 313 313 310 309 312 308 312 309 307 303 307 306 304 307 307 307 308 308 309 308 308 307 305 304 304 301 298 298 297 296 296 295 296 296 297 298 298 300 314 320 320 320 320 319 318 316 315 314 314 313 313 312 312 312 311 311 311 311 310 310 310 310 310 310 310 310
319 318 319 319 319 319 318 318 318 317 316 316 315 315 315 315 314 315 313 306 310 307 310 314 311 303 305 308 309 306 305 303 302 305 306 306 306 307 307 308 308 305 304 304 303 299 297 295 295 295 294 294 294 294 296 300 298 307 313 314 317 320 320 318 316 315 313 313 314 313 311 311 311 311 311 311 311 311 310 310 310 309 309 310 310
319 319 319 320 319 319 319 318 319 318 318 317 316 316 315 315 314 314 315 314 308 309 309 311 312 308 309 310 306 304 306 304 300 301 302 306 306 306 306 307 306 304 302 303 304 302 298 296 294 294 293 294 294 295 296 294 300 307 306 305 308 315 319 318 317 316 315 313 313 312 312 311 311 311 311 310 310 310 310 310 309 309 309 309 309
319 319 318 319 320 320 320 320 319 318 318 318 318 318 317 316 316 314 314 316 316 309 305 310 312 314 313 305 304 302 304 301 296 305 302 305 305 306 306 307 305 304 302 302 303 302 299 296 293 291 291 291 292 293 294 295 297 297 297 299 303 309 313 318 317 316 315 314 313 313 312 311 310 310 310 310 310 310 310 309 309 309 308 308 308
319 319 319 318 319 320 320 320 319 319 318 319 319 317 316 316 316 317 315 315 317 314 311 305 311 311 314 316 314 309 302 299 305 304 299 301 302 306 306 306 306 305 303 302 301 301 299 297 293 290 290 290 290 290 292 293 294 293 292 296 306 309 311 313 317 317 317 315 314 313 313 312 310 310 310 310 309 309 309 309 309 308 308 308 308
319 319 319 318 319 319 320 320 320 320 318 318 318 318 318 318 317 316 317 315 314 315 316 315 306 310 311 313 311 309 307 307 308 303 304 304 305 305 306 306 305 305 304 303 301 300 299 298 295 291 289 289 289 289 289 291 297 296 303 304 309 311 311 310 311 315 317 316 315 313 313 312 311 311 310 309 309 308 308 308 308 308 308 308 308
319 319 319 319 318 319 319 319 319 320 318 318 318 318 317 316 316 317 317 316 316 316 316 315 313 313 311 312 311 312 311 308 309 311 310 306 304 304 303 305 304 305 305 304 302 300 299 297 296 293 290 289 289 287 288 289 290 293 299 307 310 311 312 311 309 310 313 315 315 313 312 312 311 311 310 309 309 308 308 308 308 308 307 307 307
319 319 319 320 317 318 318 318 319 319 317 318 318 317 316 315 314 314 315 316 316 317 317 317 315 315 310 311 313 313 313 312 311 308 307 307 309 306 303 299 301 303 302 303 304 302 300 299 297 296 292 290 288 288 287 287 289 291 297 306 310 312 312 312 310 309 309 310 312 312 312 312 312 311 310 309 309 308 308 308 307 307 307 307 306
317 318 319 319 319 317 318 318 318 319 316 317 317 316 316 315 316 315 316 317 318 317 317 318 318 317 316 315 312 312 312 312 310 309 307 308 307 304 305 300 300 304 303 302 302 302 301 299 297 296 294 291 289 287 287 287 287 289 294 302 307 310 312 311 310 309 308 308 307 308 308 310 311 311 310 309 308 308 308 307 307 307 306 306 306
317 317 318 319 319 318 318 319 319 318 316 317 317 317 317 317 318 318 318 318 318 319 317 318 318 318 318 317 316 315 314 312 311 310 309 304 303 305 305 304 305 306 303 303 302 302 301 299 299 298 296 293 290 288 287 287 288 289 293 299 304 307 310 312 310 309 307 307 306 306 305 306 308 308 309 308 308 307 308 307 307 306 306 305 305
317 317 319 319 319 319 318 319 319 320 320 320 320 320 320 320 320 319 319 319 319 319 319 318 318 318 319 319 318 318 318 317 317 316 313 312 311 310 308 305 302 305 299 297 301 301 299 299 299 299 298 295 292 290 288 287 287 290 290 295 302 306 310 311 312 310 308 306 306 305 305 304 305 305 305 306 306 306 306 306 306 305 305 305 305
319 320 320 321 320 320 321 321 321 321 322 322 322 322 322 322 321 321 320 320 320 320 319 319 319 318 318 319 319 318 318 320 319 317 316 315 313 311 311 305 306 303 304 297 300 296 298 299 299 299 299 296 294 291 290 288 287 289 291 291 300 303 306 309 311 311 309 307 306 306 305 305 305 304 304 305 304 305 305 305 305 305 304 304 303
320 321 322 322 322 322 323 323 324 323 322 323 323 323 323 323 323 322 321 322 322 321 320 320 320 320 320 319 319 320 320 320 319 318 317 315 312 311 310 301 304 305 294 293 294 297 296 297 299 299 298 297 296 294 292 290 289 290 291 289 295 301 303 305 308 310 310 308 307 306 305 304 305 305 304 304 304 304 304 304 304 304 304 303 303
319 320 319 321 321 322 323 324 324 325 324 324 324 324 325 324 323 323 323 323 323 322 322 321 321 321 320 320 319 320 320 320 320 319 319 317 316 314 311 309 301 297 299 295 294 295 301 295 297 298 298 297 296 295 293 291 291 291 290 288 287 296 301 304 306 308 308 308 307 306 305 304 304 304 303 303 303 303 302 302 303 303 303 302 301
318 317 318 320 321 321 321 322 323 324 325 325 325 325 325 324 324 323 322 322 323 322 322 321 321 321 320 320 320 319 319 319 319 319 319 319 318 317 314 311 309 305 296 298 296 299 298 298 296 297 298 298 297 296 294 293 291 292 290 288 287 290 298 302 304 305 306 307 307 306 304 303 303 302 302 302 301 300 300 300 300 300 299 298 299
317 316 317 318 320 321 321 321 322 323 325 325 325 325 325 324 323 323 322 323 322 322 322 322 321 319 319 318 320 320 320 319 319 318 319 318 317 317 316 314 313 309 305 296 300 300 300 297 298 297 297 298 298 295 293 292 292 291 289 289 288 288 294 300 303 304 305 306 306 306 304 303 302 302 301 301 301 300 300 299 299 299 299 299 299
316 316 316 317 318 315 320 320 322 323 324 324 324 325 324 323 324 323 323 322 321 320 320 320 319 319 318 318 319 319 318 317 317 318 318 318 316 316 315 314 313 311 309 305 303 304 303 296 297 297 293 297 297 294 293 293 293 291 290 290 289 288 292 297 300 302 303 303 303 304 304 303 302 301 301 301 300 300 300 299 299 299 299 299 299
313 314 315 316 316 317 319 320 322 323 323 324 324 324 323 322 321 321 321 322 321 320 320 319 319 319 318 318 317 317 316 315 314 315 316 316 316 315 314 313 312 312 311 310 306 306 306 306 299 296 294 295 295 294 292 292 292 291 290 290 289 289 290 292 296 299 301 302 303 303 303 303 302 301 300 300 300 300 300 299 298 298 298 298 298
314 314 314 314 314 314 315 318 320 322 322 323 323 323 323 323 322 320 319 320 320 319 319 319 320 318 317 316 314 314 315 313 311 311 313 313 314 314 313 312 311 311 311 310 308 308 301 304 300 294 294 294 293 293 293 291 290 291 290 289 287 288 287 287 292 296 298 300 301 301 302 301 301 300 300 300 300 300 299 298 298 298 297 297 296
312 312 312 313 313 313 314 314 318 319 320 321 321 321 321 321 321 321 319 318 318 317 315 316 315 316 314 314 313 313 311 311 311 312 312 313 312 311 311 311 310 310 310 308 306 306 304 288 289 290 290 292 289 291 292 290 288 288 290 288 286 285 286 286 287 291 295 297 299 299 299 299 299 299 299 299 298 298 298 297 297 297 296 295 293
310 312 311 311 311 312 313 314 315 317 319 320 320 320 319 318 317 318 316 313 312 312 311 312 310 309 309 310 310 309 308 309 310 311 311 311 310 309 308 308 310 309 309 309 307 306 306 292 290 287 288 289 291 288 291 289 288 287 287 287 285 285 286 286 285 286 292 295 296 297 297 297 297 298 297 296 297 297 296 296 295 295 294 293 292
305 309 309 309 310 311 312 312 314 314 316 316 316 316 316 315 314 314 314 312 312 311 310 309 309 307 306 306 307 307 306 306 308 309 309 309 307 307 308 308 309 310 308 307 307 303 302 302 293 290 287 288 290 289 289 290 289 288 287 287 286 285 285 285 285 285 289 293 294 295 295 296 296 296 295 295 295 295 294 294 294 293 292 292 291
306 303 303 307 307 308 309 309 309 310 311 311 312 312 315 314 313 315 313 312 312 311 310 309 308 307 308 305 306 306 304 306 306 306 305 302 302 303 304 305 304 306 306 299 303 305 301 301 292 291 288 288 288 287 287 287 287 287 287 287 286 285 285 285 284 284 287 291 293 293 294 295 295 294 295 295 295 294 293 293 292 292 292 291 290
304 301 299 300 303 304 306 307 308 307 309 310 312 311 311 310 311 311 311 310 308 308 309 309 303 305 304 305 306 306 305 304 303 302 303 302 302 302 302 301 299 300 296 295 294 293 296 297 295 287 287 287 286 285 286 286 285 285 285 285 285 285 285 285 285 285 286 290 291 292 293 293 293 294 295 295 294 293 292 292 292 291 291 290 289
300 300 302 300 302 303 304 305 306 306 306 307 308 309 308 305 303 304 305 305 306 305 304 304 304 304 305 305 305 304 303 303 303 303 302 301 299 296 295 295 294 293 293 291 291 292 292 295 296 294 285 286 284 284 285 286 285 284 284 284 284 285 284 283 283 283 284 285 287 289 291 292 292 293 294 294 293 292 292 291 291 290 289 288 288
301 300 299 301 299 302 303 304 304 304 305 303 304 304 304 304 304 304 303 302 302 301 302 302 302 301 301 301 302 301 302 301 302 302 301 298 298 296 296 295 293 292 291 291 290 290 290 290 290 290 290 286 285 285 283 285 285 285 285 284 284 285 283 283 283 283 283 283 286 288 287 287 288 289 292 292 292 292 291 290 290 290 288 287 286
301 301 301 301 298 297 299 300 301 300 302 301 300 300 302 303 302 302 302 302 301 299 298 298 298 298 299 299 299 299 299 300 300 300 298 299 296 295 292 292 291 291 292 290 290 289 290 290 290 290 287 286 285 284 284 284 284 284 284 285 284 285 283 283 283 282 281 281 281 281 285 286 287 288 290 290 290 290 289 289 289 288 286 285 285
299 299 298 298 296 295 293 295 296 295 298 300 301 300 300 299 300 301 301 300 299 298 297 295 294 295 295 295 295 295 294 293 293 294 295 296 298 295 291 292 291 291 290 290 289 288 288 288 288 288 287 286 286 285 283 283 284 286 285 284 284 285 283 282 282 282 281 280 280 279 279 281 281 281 282 282 283 286 286 288 286 286 284 284 285
295 294 295 295 298 298 297 293 294 295 298 299 295 296 297 301 300 300 299 297 296 296 294 292 291 291 292 292 292 290 291 291 291 292 293 293 294 297 295 292 291 290 290 289 289 288 288 288 289 289 288 288 288 286 286 286 286 284 284 284 283 284 281 281 282 281 281 280 279 278 279 281 281 280 280 280 280 281 280 281 280 281 282 284 284
293 292 292 295 295 295 297 297 296 296 298 298 294 296 297 297 298 298 298 297 295 292 292 292 293 290 289 290 289 289 289 289 289 291 292 292 292 293 293 292 292 293 289 289 289 288 288 289 289 289 289 289 289 287 286 286 284 285 285 284 284 282 281 281 282 281 281 280 277 277 278 279 280 278 279 280 279 278 279 278 283 284 283 284 285
291 290 292 294 294 293 295 294 296 296 296 294 295 296 296 296 295 296 296 296 294 293 290 291 290 289 289 289 288 289 289 290 289 289 290 290 291 291 291 291 291 292 292 291 289 288 287 288 288 288 288 288 288 287 285 284 284 284 284 283 283 283 282 281 281 281 277 279 277 275 277 276 278 277 277 278 279 279 278 280 284 285 285 285 285
290 291 293 292 293 292 294 294 294 292 292 293 294 295 295 295 295 294 294 294 293 291 290 290 290 289 288 288 288 288 289 287 287 288 289 289 289 289 289 289 290 291 292 293 291 289 288 288 288 288 289 288 287 287 286 284 285 284 283 282 282 281 281 279 280 278 273 276 275 275 275 275 276 277 276 279 279 279 279 282 284 285 285 285 285
292 292 291 291 292 292 293 294 294 293 293 293 294 294 294 295 295 295 294 293 292 291 290 290 289 289 289 289 289 288 288 288 288 289 289 289 288 288 288 288 288 287 289 290 290 288 288 289 288 288 288 286 287 285 284 285 284 284 282 282 280 277 276 278 276 276 275 277 276 272 271 273 275 276 276 278 278 278 278 280 283 285 285 285 285
292 292 291 291 291 291 291 291 292 292 293 293 294 294 294 295 295 294 293 292 290 289 289 289 289 289 289 289 289 289 288 288 288 288 288 288 288 287 286 286 286 286 286 286 286 286 286 285 284 284 285 284 283 283 282 283 284 284 282 280 279 277 274 273 272 274 273 277 276 274 272 270 271 273 276 277 277 277 278 280 283 284 284 284 284
290 290 290 291 291 290 290 290 291 291 290 292 292 293 294 295 295 293 291 290 289 289 288 288 288 289 289 289 289 290 288 287 287 289 288 288 287 286 286 285 284 283 282 284 286 286 283 281 281 282 283 283 285 282 282 281 280 278 276 273 274 272 273 274 275 272 273 276 277 275 273 270 271 271 273 275 276 275 277 276 280 283 284 284 284
290 290 291 291 291 291 290 290 290 291 290 290 291 292 293 294 294 290 290 290 289 289 289 288 288 288 288 289 289 289 288 287 287 290 290 288 286 286 286 285 283 282 283 281 284 287 287 287 287 286 286 286 286 287 287 287 282 277 274 274 273 271 271 272 273 272 272 272 276 276 274 273 271 270 272 272 272 274 275 275 275 279 282 283 284
290 291 291 290 290 290 290 290 290 291 291 289 291 292 293 293 292 291 290 290 289 289 288 287 287 287 287 286 287 288 288 287 288 290 290 287 286 285 285 284 283 281 281 279 278 277 285 286 286 287 287 287 287 288 288 288 287 282 277 276 272 274 273 272 273 272 269 268 273 277 273 272 268 270 270 271 269 269 270 272 274 275 278 279 283
290 290 290 290 289 289 289 290 288 291 291 289 290 292 292 293 291 290 290 290 289 288 288 286 286 286 285 285 286 287 287 287 289 290 291 287 286 285 285 283 281 279 278 274 277 278 278 278 276 275 277 277 276 278 281 288 288 284 278 275 274 274 273 273 273 272 271 270 271 276 272 269 268 268 268 269 269 269 265 267 270 272 274 274 275
Wind_Speed
5 5 4 5 5 4 4 4 4 4 4 4 3 3 3 2 3 3 3 3 3 4 3 3 2 1 1 3 3 3 3 2 4 2 2 2 1 1 3 4 5 6 5 6 6 6 6 6 6 5 3 1 5 6 7 7 7 7 7 8 8 9 9 9 9 10 10 10 11 11 11 11 10 10 10 10 11 11 11 12 12 12 13 12 13
5 5 5 6 5 4 4 4 5 4 4 5 5 4 5 3 3 4 5 4 3 4 2 4 5 3 1 2 3 4 4 2 2 3 2 1 1 1 3 4 5 4 3 4 6 6 7 7 6 5 3 4 6 5 6 6 6 7 7 7 8 9 9 9 9 9 9 10 10 10 10 10 9 9 9 9 10 10 11 11 11 11 11 12 11
6 6 5 5 5 4 5 5 4 5 5 6 4 6 4 5 5 5 3 3 4 3 2 4 4 4 2 2 4 3 5 1 0 1 1 2 2 1 1 3 3 4 3 4 5 7 7 6 6 6 4 5 7 7 5 5 6 6 7 7 8 8 8 8 8 8 9 9 9 9 9 9 8 8 8 8 9 9 10 10 10 10 10 11 11
6 6 6 5 5 5 5 5 6 5 5 5 5 5 5 4 3 3 2 1 3 4 1 2 4 5 3 3 3 4 5 1 1 2 3 2 2 2 2 2 0 3 4 4 6 7 7 6 9 11 4 5 8 7 6 6 6 7 7 7 8 8 8 8 8 8 8 8 8 8 8 8 8 8 8 7 8 8 9 9 9 9 9 9 10
6 7 6 6 6 6 6 6 6 5 5 5 5 3 3 3 4 1 2 1 3 5 2 1 4 5 3 4 2 4 3 1 2 3 3 3 4 4 3 2 2 2 2 4 5 7 8 8 8 9 3 8 8 6 7 6 7 7 7 7 8 8 8 8 7 7 8 8 7 7 7 7 7 7 6 6 7 7 7 8 8 8 8 8 8
7 7 6 6 6 7 7 6 6 5 4 4 5 4 4 3 4 1 3 1 4 5 4 6 4 4 4 4 2 4 2 3 3 4 3 4 4 4 5 4 4 4 1 3 5 6 7 8 8 8 6 9 6 6 7 7 7 7 7 8 8 8 8 7 7 7 7 7 7 6 6 6 6 6 5 5 5 6 6 7 7 7 7 7 7
7 7 7 7 7 7 7 7 5 4 4 4 5 3 3 4 2 2 2 2 3 5 4 6 5 6 6 3 5 3 2 4 3 3 4 3 3 4 4 4 5 4 3 1 2 4 5 5 6 6 11 11 7 7 8 7 8 7 8 8 7 8 8 7 6 7 7 6 6 6 5 5 5 4 4 4 5 5 5 5 5 5 6 6 7
8 7 7 7 7 7 6 5 5 4 4 4 3 4 3 3 3 3 3 5 4 6 4 5 4 6 4 4 5 4 4 3 4 5 4 4 4 4 4 4 3 4 4 2 1 2 4 4 4 6 3 7 7 8 8 8 7 7 8 7 7 7 7 7 6 6 7 6 6 5 4 4 3 3 3 3 3 4 4 4 4 5 5 6 7
8 8 7 7 7 6 5 5 4 5 4 4 4 4 3 4 4 4 5 6 5 5 5 4 5 5 4 4 5 4 5 5 4 4 4 4 4 4 4 4 4 4 4 5 4 1 2 3 3 4 5 5 6 8 9 8 8 8 7 7 7 7 7 7 6 6 6 6 5 4 4 3 2 2 2 2 2 2 2 3 4 5 6 7 7
8 8 8 7 6 6 5 5 5 5 5 4 5 4 4 5 5 4 6 5 5 6 6 5 4 4 4 5 6 4 6 5 4 3 4 5 5 5 6 4 4 4 3 5 6 4 1 1 3 3 5 4 4 5 9 8 8 9 8 7 7 7 7 7 7 7 6 5 5 4 3 2 2 1 1 1 1 1 2 3 4 5 6 7 8
9 8 8 7 6 5 5 4 5 5 5 4 4 4 4 4 5 6 4 6 6 5 6 4 4 4 5 6 5 5 6 4 3 4 5 5 6 6 4 5 5 3 3 2 1 3 3 1 0 0 0 3 4 6 5 8 11 9 10 9 8 8 8 8 7 7 6 5 5 4 3 3 3 2 1 1 1 1 2 3 5 5 6 7 8
9 8 8 7 6 6 6 5 5 5 5 5 6 5 6 5 6 6 6 4 4 4 4 4 3 3 6 6 5 6 7 5 4 4 4 5 5 4 5 4 5 3 3 3 2 2 3 3 2 2 1 2 4 4 3 6 4 10 12 11 10 10 9 8 7 7 7 6 5 5 4 4 3 3 2 2 1 2 2 3 5 5 6 7 7
8 7 8 7 6 6 6 5 5 5 6 8 8 7 7 7 6 5 6 7 5 4 4 2 2 5 4 5 6 5 7 4 5 5 4 5 3 5 4 5 5 5 4 3 3 3 3 4 3 3 1 1 2 3 2 2 3 3 10 13 13 12 9 9 8 7 7 7 6 6 5 5 4 4 3 2 2 2 3 3 4 5 5 6 7
8 7 7 7 7 6 6 6 6 6 7 6 6 6 6 6 4 4 4 7 5 4 4 4 3 6 5 5 4 4 4 3 5 5 4 5 5 5 5 6 7 6 4 4 5 5 6 5 5 4 3 2 2 3 2 1 2 3 5 10 14 13 11 10 8 8 7 7 8 7 7 6 5 4 3 3 3 3 3 3 3 4 5 6 6
7 7 7 7 7 6 7 6 7 7 6 7 6 7 7 7 7 7 5 3 5 2 5 8 6 2 1 2 5 3 3 1 2 4 5 4 4 5 6 5 5 4 5 4 5 5 4 4 4 4 4 4 5 5 4 3 3 4 4 5 5 10 13 11 10 9 9 9 9 9 7 6 6 4 4 4 4 4 3 3 3 4 5 6 6
6 6 7 7 7 8 7 7 8 7 8 8 7 9 7 6 6 7 6 7 3 5 5 6 6 3 5 5 2 0 8 4 4 5 2 4 6 6 5 6 6 5 4 6 7 6 5 4 5 5 5 6 6 6 6 5 6 5 2 2 5 5 9 13 12 11 10 10 10 9 8 7 7 6 5 5 5 4 4 4 3 4 5 6 7
6 7 8 9 8 8 8 8 8 8 8 8 9 9 8 7 8 7 8 8 8 4 3 6 8 8 6 1 3 2 5 4 0 5 0 2 4 5 6 7 7 8 7 8 6 6 7 7 7 6 7 8 7 6 7 6 6 5 4 4 4 5 6 11 14 13 12 12 11 10 10 9 8 7 6 6 5 5 4 4 4 4 5 6 7
8 8 9 8 9 9 9 9 9 8 8 9 8 6 7 8 9 9 8 8 9 6 5 4 8 9 10 9 7 7 3 2 1 7 1 1 1 2 4 6 7 8 8 8 9 9 7 8 6 8 8 7 7 6 7 6 6 5 5 5 7 7 7 6 12 14 14 13 12 12 12 11 10 9 7 6 6 5 5 5 5 4 5 6 7
9 9 8 9 9 9 9 9 9 8 8 8 9 9 9 9 7 8 9 7 7 9 10 7 2 6 7 9 9 7 4 3 8 1 6 1 1 3 4 5 4 5 8 11 11 9 8 8 8 9 8 7 7 7 6 6 7 7 8 9 11 11 9 8 7 12 15 15 14 14 13 12 11 9 8 7 6 6 5 5 5 5 6 6 7
9 9 9 9 9 9 9 9 9 9 8 9 10 8 7 6 7 9 8 8 9 10 9 7 8 7 8 10 10 10 7 6 6 10 10 9 2 1 1 5 6 10 11 10 11 11 10 9 9 8 7 7 6 6 6 6 6 6 7 13 15 14 14 13 11 9 13 16 16 15 14 12 12 10 8 8 7 6 6 6 5 5 6 7 7
9 9 9 9 9 9 8 9 9 9 8 9 8 8 9 8 7 8 8 9 9 10 9 10 9 10 4 6 8 9 8 9 8 5 7 6 9 6 5 1 3 8 8 9 9 8 9 9 9 9 7 7 7 7 7 7 7 8 8 15 18 18 17 17 16 15 14 14 14 14 13 12 12 10 9 8 8 7 6 6 6 5 6 7 7
7 8 9 9 8 8 9 10 10 10 8 9 8 8 8 8 9 10 10 10 9 10 11 9 8 8 9 7 7 6 6 6 5 7 7 8 10 4 5 8 6 10 10 11 12 10 8 7 7 8 8 8 7 8 7 8 8 8 10 16 18 19 19 19 20 19 18 16 15 13 13 13 11 10 9 8 7 7 7 6 6 5 6 6 7
7 7 8 8 9 9 10 10 9 8 8 8 9 9 9 9 10 11 11 12 9 10 10 10 9 8 9 8 10 10 10 9 8 7 7 6 5 7 5 8 12 10 8 12 10 11 7 7 8 9 10 9 8 8 9 9 10 11 16 15 17 18 19 20 20 19 19 18 16 15 14 13 11 10 9 8 7 7 6 7 6 6 6 7 7
6 7 8 8 8 9 9 8 8 9 10 9 9 9 9 9 9 9 9 11 10 9 9 10 10 10 11 10 10 10 10 10 10 10 10 10 10 11 8 5 6 9 2 2 7 8 7 9 10 10 9 8 9 10 10 9 11 16 14 15 16 19 19 20 20 19 18 17 17 16 14 13 12 10 9 8 7 7 7 7 6 6 6 7 7
8 8 8 10 9 9 9 9 9 10 10 10 9 10 9 9 10 10 10 11 10 11 10 12 13 12 10 9 10 9 10 10 10 8 7 7 8 10 9 5 9 6 6 3 6 4 6 8 9 9 9 9 9 9 10 11 11 14 16 12 18 17 19 19 19 19 18 18 17 15 14 13 12 11 10 9 8 8 7 7 7 7 7 7 7
9 10 9 10 9 10 10 10 10 10 10 10 10 9 10 10 10 11 11 11 10 12 12 11 8 8 9 10 10 10 10 10 8 8 9 8 8 10 9 4 6 7 1 2 1 1 4 8 10 9 8 10 10 10 10 11 10 14 17 11 12 16 15 17 19 20 20 19 17 16 14 13 12 11 10 9 9 8 6 6 7 7 7 7 7
9 8 8 9 10 10 11 11 10 10 10 10 9 10 10 9 9 10 9 8 8 9 9 10 12 12 9 8 8 8 9 8 8 9 9 10 10 10 9 10 6 5 5 3 3 7 10 3 7 9 11 10 10 10 11 9 11 14 14 9 7 15 17 18 20 21 20 18 18 17 15 14 13 12 11 10 10 8 7 7 8 8 7 7 7
7 7 8 10 10 10 10 11 10 9 9 9 9 9 9 9 7 6 7 5 6 8 9 9 8 9 8 7 7 7 6 7 8 9 10 10 10 9 8 9 11 10 4 7 5 9 6 8 3 9 10 11 10 10 8 9 9 13 12 9 9 11 17 18 20 19 17 16 16 16 16 15 14 13 12 11 10 9 8 8 8 8 8 8 8
7 8 9 9 9 10 10 9 9 9 9 9 9 9 9 9 9 9 9 9 10 10 8 9 10 8 9 10 9 8 8 8 8 8 9 9 10 10 9 11 11 12 9 6 8 8 4 10 7 5 11 9 10 7 7 9 10 10 9 10 10 9 10 17 18 17 17 16 15 16 16 16 15 14 13 12 11 10 10 9 10 10 10 9 10
8 8 8 9 9 10 9 8 8 9 9 9 9 9 8 8 10 11 9 7 8 9 10 8 8 9 9 8 8 8 7 6 7 8 8 8 8 9 9 11 9 11 8 9 7 7 6 3 7 5 4 9 7 6 8 9 10 12 9 10 10 10 11 14 16 18 17 17 16 16 16 16 15 14 14 13 12 11 11 11 11 11 10 11 10
7 8 9 9 8 8 8 8 8 9 9 9 8 8 8 7 6 6 7 8 8 7 6 8 10 8 8 9 7 7 5 6 6 7 7 8 8 8 8 7 7 9 10 9 11 4 4 7 7 6 5 7 6 5 5 7 7 11 9 9 10 11 9 10 15 15 14 15 15 15 15 15 15 15 14 14 13 13 13 12 12 12 11 11 9
8 9 9 9 8 8 7 8 9 8 8 8 8 8 9 10 8 6 5 7 8 8 8 8 8 8 9 9 8 6 6 5 5 5 6 6 6 7 8 7 7 7 8 9 12 13 4 6 3 2 3 3 4 6 7 4 5 11 10 9 8 7 6 6 9 10 10 13 14 14 14 14 15 15 14 14 14 14 14 13 13 13 12 10 8
8 8 9 8 8 8 8 8 9 8 8 7 7 7 8 8 9 9 7 6 7 8 6 7 6 8 9 9 7 7 5 5 6 6 6 7 6 6 5 5 7 7 8 9 11 12 6 2 0 1 1 4 3 6 7 6 5 5 6 4 3 5 6 5 5 8 11 11 12 12 13 13 14 14 14 14 14 15 14 14 14 13 11 9 8
8 9 8 7 7 7 8 8 8 8 8 8 8 8 8 7 7 6 6 6 6 6 5 7 6 5 5 6 6 5 5 6 6 6 7 7 7 7 7 7 8 9 8 9 10 9 11 1 1 2 1 2 4 2 7 6 6 4 6 4 3 4 5 4 5 6 10 11 10 11 12 13 13 13 13 15 15 15 15 15 14 13 10 9 9
6 7 7 7 7 7 8 8 7 7 8 7 6 7 7 7 7 6 5 5 6 6 6 6 6 5 4 4 5 4 4 5 5 6 6 7 6 7 8 8 10 10 8 10 9 8 9 8 3 3 3 2 6 3 4 3 1 2 5 5 5 3 3 4 5 5 10 13 15 15 15 14 14 14 15 16 15 15 15 14 13 12 11 11 11
7 5 4 5 6 7 7 7 7 7 7 7 7 6 8 8 8 8 6 6 6 6 6 6 6 6 7 5 5 4 4 4 5 5 5 4 4 5 6 6 6 8 7 4 7 8 7 8 2 5 3 5 3 1 2 2 2 2 2 0 1 3 3 4 6 6 7 12 13 14 15 15 16 17 17 17 16 16 15 14 13 13 12 11 10
5 5 4 4 6 6 7 7 7 7 7 8 8 7 7 6 7 6 6 6 6 6 6 6 6 5 4 4 4 4 4 5 4 4 5 6 5 5 6 5 5 6 4 2 4 4 5 6 4 1 1 2 1 2 3 4 1 1 1 3 4 6 6 5 4 5 6 11 12 14 15 16 17 17 18 18 17 16 15 14 13 13 12 11 10
5 5 7 6 7 7 7 7 7 7 6 7 7 7 6 5 5 5 5 6 6 6 5 5 5 5 4 4 4 4 5 5 6 5 5 6 5 5 5 5 5 3 3 4 3 4 4 7 5 4 1 1 2 2 0 2 4 4 3 4 3 5 6 5 4 2 2 3 4 6 10 12 14 18 18 17 17 16 14 13 13 13 11 10 10
7 7 7 7 7 7 7 7 7 7 7 6 6 6 6 6 6 6 6 6 5 5 4 5 4 4 4 4 4 4 4 4 4 5 5 4 4 5 5 5 3 3 4 4 2 3 3 4 4 3 1 2 1 1 0 1 2 4 6 4 6 4 4 6 7 4 4 5 5 7 8 8 8 8 12 16 16 15 13 13 13 13 11 10 10
8 8 8 7 6 6 6 7 6 6 6 7 6 5 6 6 6 6 6 6 5 5 4 4 4 4 4 5 5 5 4 4 5 4 4 5 3 5 4 3 3 5 5 4 3 4 4 4 5 3 0 1 2 3 2 3 2 5 6 5 8 6 6 5 6 6 5 4 6 6 6 8 9 11 13 14 15 15 14 12 14 12 10 9 10
7 6 6 6 6 5 4 4 5 5 6 6 6 6 6 5 6 6 6 6 5 5 4 4 4 4 4 5 5 3 2 4 6 6 6 7 5 5 4 5 5 6 4 4 3 3 3 3 5 2 2 2 4 5 5 5 7 5 2 6 6 5 2 3 6 6 6 6 5 5 8 7 6 6 6 6 7 8 9 10 7 10 11 11 11
6 5 5 5 6 6 5 4 4 5 6 5 7 10 9 7 5 5 4 5 5 5 5 4 4 4 4 1 1 4 5 6 7 7 8 9 9 5 4 5 6 5 4 4 3 4 4 4 6 4 4 6 6 7 6 5 4 2 3 5 6 3 1 4 4 6 6 5 6 7 8 5 6 7 6 8 5 5 5 6 5 6 9 12 12
6 6 6 6 6 5 6 5 5 6 6 5 9 9 10 9 6 4 5 5 5 4 4 4 6 3 1 2 3 4 4 4 4 6 4 4 4 4 6 9 8 8 5 5 5 6 5 5 3 4 5 6 5 4 5 5 4 6 6 4 4 2 5 5 8 2 4 7 6 5 8 4 6 8 7 8 5 5 5 7 10 13 14 13 13
6 5 6 6 5 5 6 5 6 6 5 7 9 10 9 9 8 5 5 5 4 4 4 5 4 3 3 2 2 2 3 3 3 2 3 5 6 6 6 6 8 6 6 6 5 4 4 4 4 5 4 5 4 3 3 2 4 3 3 4 4 5 5 6 5 7 1 6 6 4 9 2 4 6 7 9 5 6 7 8 13 15 15 15 14
5 7 7 6 7 6 7 8 8 6 5 6 8 9 9 9 9 7 4 4 4 5 5 5 5 4 4 4 4 3 3 4 3 3 4 4 5 6 5 5 5 5 4 4 4 3 5 4 4 4 5 3 3 3 3 3 2 3 2 3 4 4 4 4 8 6 2 3 3 4 6 5 4 5 7 8 4 3 5 9 14 15 16 15 13
8 7 6 8 7 8 8 7 6 6 6 7 9 9 9 9 9 8 5 5 5 5 6 6 5 5 6 6 5 4 3 3 3 4 4 4 4 4 2 2 3 2 3 2 2 4 4 3 3 4 2 2 4 0 1 2 2 3 4 6 4 4 5 9 3 1 0 5 6 2 3 4 3 4 7 5 2 3 5 7 13 15 14 13 12
9 10 9 8 8 7 7 7 7 7 7 10 11 11 11 10 10 8 5 5 5 5 5 5 6 6 5 5 4 5 4 4 4 6 5 5 5 3 3 2 2 1 1 1 0 1 2 1 3 3 2 1 2 2 1 2 5 3 4 4 5 5 3 0 1 2 1 3 2 2 5 1 1 1 5 3 1 4 4 7 13 14 14 12 11
6 5 5 7 8 8 7 7 7 7 6 10 11 12 12 11 11 7 6 6 5 5 5 5 5 5 5 5 4 4 4 4 6 8 5 5 4 4 3 3 2 1 1 2 0 2 2 3 3 3 3 2 3 3 4 4 3 4 3 4 4 3 2 1 5 1 2 2 5 4 3 2 1 2 2 0 1 3 4 4 10 13 12 11 11
8 9 9 8 7 8 8 8 8 7 6 9 12 12 11 12 9 6 6 5 6 6 6 5 4 4 4 4 4 4 4 4 6 7 7 6 4 4 4 4 3 3 1 1 1 2 2 3 2 2 3 4 5 5 6 7 7 6 5 2 3 3 3 4 4 2 5 3 3 5 2 5 1 2 5 2 3 4 5 5 3 7 10 11 11
10 10 8 7 7 7 9 10 9 8 8 9 13 12 13 13 10 8 7 7 6 5 5 4 4 4 4 6 5 4 5 4 6 7 8 6 4 4 4 4 2 1 0 0 1 2 4 4 4 2 1 1 3 4 5 6 9 8 7 6 4 6 6 4 5 2 1 1 3 4 1 4 1 1 2 4 1 3 2 2 0 1 5 7 10
8 6 7 7 7 6 7 7 10 10 7 9 13 13 14 14 10 6 6 5 6 5 5 4 3 3 3 4 6 5 4 5 8 7 9 7 4 4 4 3 2 0 1 3 2 1 0 1 1 1 2 4 2 0 1 4 9 7 3 2 5 5 5 3 3 1 3 2 1 4 3 3 0 2 2 4 4 1 1 1 1 1 1 1 2
Wind_Direction
186 194 173 197 200 198 193 201 203 211 200 209 218 221 243 245 248 258 269 282 296 294 321 312 321 319 310 310 319 307 286 317 312 286 242 230 237 304 322 330 323 321 333 358 345 337 334 321 314 293 337 257 137 131 127 111 109 115 115 114 111 107 104 101 98 95 90 88 85 81 77 75 71 68 66 62 59 56 54 49 48 46 44 42 39
195 193 186 203 201 198 199 212 213 208 202 215 208 213 231 226 241 249 259 273 291 284 341 316 321 329 302 291 298 283 280 258 234 213 243 238 208 288 328 329 320 317 356 349 335 330 323 309 291 271 228 235 143 142 130 120 125 126 121 120 116 114 109 104 101 97 95 90 87 83 80 77 72 70 65 61 58 56 53 50 46 44 40 39 37
193 193 199 204 204 201 215 207 218 208 207 220 203 218 219 228 231 243 250 268 271 290 324 312 309 312 289 260 272 298 282 294 229 216 217 219 190 215 282 315 326 346 354 329 331 326 318 305 278 249 220 196 154 148 135 139 143 140 135 129 125 121 114 109 103 101 98 93 89 87 84 77 75 70 65 60 57 55 53 50 46 42 38 36 32
195 195 199 201 206 210 215 207 224 212 207 211 205 208 213 230 241 247 263 278 296 308 312 296 301 293 309 270 273 272 270 269 219 215 214 182 192 197 196 222 340 3 1 343 329 328 320 303 298 322 246 158 167 157 141 143 154 151 150 142 134 128 123 116 109 105 100 96 90 89 84 80 75 70 65 59 58 56 54 48 46 41 36 34 27
199 198 198 203 206 209 215 215 222 214 209 215 209 201 211 246 267 251 293 316 319 295 326 283 276 283 295 283 302 280 273 284 225 208 213 206 187 190 196 199 165 125 360 342 338 334 325 313 317 320 194 162 181 164 152 167 169 164 160 153 141 135 129 122 118 113 107 100 96 90 84 82 76 70 64 61 56 58 51 46 45 41 34 29 22
197 201 199 206 211 213 214 219 220 213 207 202 212 200 210 215 250 269 273 292 283 283 308 292 269 267 271 264 271 262 290 287 226 214 202 204 190 180 186 205 195 167 135 345 345 343 332 321 319 300 228 193 188 171 178 184 177 171 168 159 149 141 134 130 126 117 108 104 100 93 88 84 77 71 67 57 55 54 52 46 42 38 29 24 16
203 201 206 207 213 219 218 223 215 199 199 207 212 205 195 221 230 248 288 283 260 266 262 261 270 276 265 262 264 265 282 258 236 211 208 210 205 200 199 198 185 161 152 136 345 340 334 331 343 305 230 226 179 177 191 191 186 182 175 168 158 147 138 136 132 124 115 111 104 98 91 83 78 74 70 59 51 48 47 47 38 31 25 12 10
205 204 212 211 215 220 222 217 213 188 205 208 201 214 203 228 231 190 247 260 250 265 228 249 253 262 264 265 258 255 256 257 247 224 208 181 211 212 194 194 219 180 149 125 229 300 335 331 349 14 352 176 172 200 205 197 195 191 185 179 165 154 144 143 141 132 126 119 113 107 98 88 84 82 74 66 52 43 44 39 28 21 16 5 6
206 206 214 216 218 222 221 212 201 201 200 203 204 214 198 212 231 200 199 239 237 254 265 241 257 256 268 268 262 257 253 246 239 217 177 191 197 195 191 205 198 215 180 171 179 218 334 339 6 33 24 29 183 199 210 209 202 197 193 187 173 161 154 153 149 143 135 129 124 115 110 108 99 87 79 71 45 47 35 27 19 12 9 359 4
209 207 211 217 216 216 219 208 199 200 204 192 217 203 208 204 234 216 203 212 239 241 256 255 243 262 273 267 271 260 255 249 235 194 183 199 197 200 205 192 201 209 242 184 176 171 181 339 1 34 39 41 40 211 213 219 212 207 201 196 186 174 169 168 163 155 146 139 132 128 125 135 141 140 143 84 16 355 25 14 11 9 3 356 360
210 206 209 211 213 211 215 211 198 200 198 204 212 206 210 208 221 242 217 218 226 233 240 250 260 263 271 271 275 268 269 256 230 200 201 209 204 199 163 193 194 188 215 283 184 154 165 189 287 357 52 59 68 30 336 243 212 215 210 200 196 190 184 181 175 163 154 148 145 143 152 166 192 198 205 224 282 337 0 5 6 6 359 359 359
211 209 208 207 208 209 212 206 199 192 202 208 217 212 212 213 227 228 242 248 234 243 244 252 280 279 273 278 260 264 267 250 232 224 210 207 211 175 192 175 186 194 200 194 213 180 183 202 178 204 220 96 80 62 20 7 325 220 212 211 206 201 193 189 185 173 169 166 162 165 174 191 205 214 224 246 281 323 352 359 4 358 356 355 354
211 205 207 203 208 204 206 211 196 196 204 218 216 217 211 209 220 208 226 247 253 213 235 178 282 288 268 271 288 251 254 252 237 228 213 210 186 181 177 173 187 197 202 175 188 200 208 204 205 204 193 126 111 110 85 4 308 310 230 214 213 207 203 199 192 183 178 176 179 180 191 202 210 222 236 264 288 314 335 352 352 352 348 347 346
205 205 202 199 204 207 205 208 198 205 214 219 223 217 212 214 206 239 206 224 248 192 204 126 232 241 288 311 312 297 265 230 250 247 217 201 188 182 187 193 190 193 175 187 198 204 206 202 198 193 188 195 204 183 201 227 312 292 302 243 217 212 209 204 202 193 187 189 192 196 197 205 218 228 233 266 281 294 313 330 333 340 343 340 339
204 199 202 203 208 204 210 205 205 203 211 222 218 222 213 215 205 219 235 223 235 211 186 184 229 130 175 346 278 321 327 324 287 250 214 206 182 191 186 204 206 185 181 186 208 223 228 211 202 194 191 205 213 220 215 198 219 265 277 331 309 226 214 215 211 209 199 200 202 201 203 207 220 223 235 250 270 276 290 306 315 333 336 332 333
199 195 202 206 203 210 206 204 211 202 211 220 216 225 213 217 210 218 212 249 211 242 192 193 188 139 290 226 259 219 301 257 277 288 230 203 186 197 182 191 178 170 171 203 211 214 219 217 207 196 197 203 207 211 208 213 219 226 243 310 291 294 252 216 217 216 213 209 207 207 206 212 214 222 231 240 253 266 278 290 304 321 324 327 327
199 199 197 205 205 207 208 212 210 208 207 219 222 222 215 211 206 210 204 222 247 231 230 191 205 201 195 211 301 279 228 256 82 270 185 179 226 201 198 181 179 182 191 213 212 210 204 206 211 204 204 205 207 204 205 211 214 213 222 243 278 278 298 239 213 218 221 218 213 211 212 210 214 221 225 237 244 260 273 283 297 311 315 320 322
203 202 202 201 208 208 210 211 214 211 208 218 225 221 212 206 206 207 214 210 229 241 241 216 213 210 221 225 215 244 252 223 76 290 331 225 147 195 193 207 198 194 198 204 207 213 206 210 198 209 208 208 204 200 202 206 205 206 204 224 230 243 242 280 227 217 222 221 220 216 213 210 216 216 222 231 242 254 261 274 285 294 303 308 311
208 205 205 205 207 209 210 213 214 215 210 215 223 220 219 215 201 202 212 204 199 234 237 226 204 240 228 236 249 248 224 216 255 338 296 12 112 161 218 215 210 222 215 215 210 206 205 201 203 208 211 207 200 203 202 206 203 198 204 208 218 223 227 231 257 228 222 225 224 220 217 215 215 216 218 225 237 247 257 267 274 285 295 302 307
205 205 208 206 206 211 210 213 215 217 210 217 222 220 218 214 201 207 207 202 203 223 236 220 215 229 197 228 237 245 239 233 243 244 265 277 227 296 210 197 210 222 224 226 216 209 205 201 206 208 211 208 204 200 203 201 201 200 206 212 213 216 218 218 220 230 230 227 226 222 221 219 219 218 217 225 233 240 251 260 271 284 295 302 307
202 203 205 208 205 210 210 216 217 219 213 222 222 215 212 208 204 205 208 212 209 217 226 230 212 231 184 225 228 234 233 231 235 221 245 260 263 200 212 336 267 258 244 239 239 226 210 204 204 207 204 207 202 206 203 200 200 199 203 210 212 213 215 216 215 216 221 224 226 225 224 224 222 221 220 225 229 237 246 255 267 278 289 297 299
202 204 206 207 208 206 212 217 219 220 215 220 219 216 213 212 211 210 212 217 214 214 222 229 224 226 216 220 213 230 240 243 224 225 236 228 253 229 200 187 210 240 220 230 231 228 213 196 202 207 208 205 201 206 205 206 203 199 206 208 212 214 215 215 216 215 217 220 224 227 229 231 227 222 223 222 227 237 247 253 262 273 281 288 291
192 206 206 203 208 206 212 217 218 218 217 216 219 217 216 217 219 218 218 218 219 220 224 231 230 229 225 221 227 219 220 220 214 203 219 232 237 253 230 204 215 245 229 219 226 227 210 193 207 211 209 204 200 202 206 210 204 207 203 202 210 215 216 217 218 217 217 219 222 224 227 232 232 228 223 225 231 242 249 255 260 267 275 280 283
194 198 206 203 206 213 213 217 218 218 220 219 221 218 220 219 222 221 224 221 224 221 223 224 224 231 227 220 225 227 227 229 227 213 208 223 223 240 236 217 255 244 308 281 239 236 206 206 214 214 208 205 205 205 208 207 213 212 206 207 206 211 217 221 222 221 220 220 222 224 225 228 230 228 229 231 235 242 248 252 258 263 269 273 282
198 201 204 200 206 210 208 214 218 217 221 218 221 219 220 222 224 222 222 219 216 218 223 227 224 226 228 225 229 226 228 232 232 231 226 236 232 243 242 185 227 239 237 175 244 236 209 225 218 218 207 207 208 204 209 209 212 208 206 208 206 208 215 220 223 222 221 223 224 225 226 228 228 227 227 227 232 238 245 250 256 260 263 271 277
196 206 199 200 205 209 211 216 217 219 217 222 223 222 221 224 224 225 225 225 222 222 226 230 231 232 225 231 228 227 230 228 228 225 226 225 232 237 246 231 226 238 301 251 296 296 259 226 217 210 211 214 212 209 209 215 215 211 205 204 207 209 214 218 221 221 220 221 222 225 226 229 230 228 228 229 228 232 237 249 256 259 265 270 279
201 204 192 199 206 210 213 217 217 217 216 219 222 225 225 226 228 227 225 218 217 219 222 222 228 235 241 240 241 236 233 225 223 224 222 226 229 229 231 246 251 235 253 234 293 226 239 260 210 209 212 215 215 212 213 211 217 211 204 201 207 214 215 218 221 222 222 220 218 219 221 225 229 231 229 230 232 227 230 241 253 258 262 269 278
202 189 197 199 207 211 213 218 217 217 217 216 216 218 221 223 227 226 233 214 227 224 225 222 231 235 235 237 236 234 219 220 220 224 226 229 230 234 227 235 251 263 207 244 237 257 209 231 255 216 213 214 219 215 208 209 215 213 198 203 207 212 215 217 221 224 225 225 221 219 217 220 223 227 230 228 226 227 232 239 250 258 262 261 261
198 192 200 203 208 210 214 217 216 219 221 220 220 222 219 222 225 228 231 227 228 233 230 230 236 240 239 231 232 231 227 222 222 226 231 230 226 225 221 226 229 247 243 223 232 244 247 194 229 236 201 214 217 203 195 209 211 196 201 209 212 212 211 216 219 222 223 222 221 221 220 219 219 223 227 228 226 229 229 231 239 244 249 254 257
195 198 198 205 210 211 214 214 215 218 222 223 222 223 225 230 228 228 230 226 225 226 226 225 232 234 233 233 228 230 230 228 232 226 230 234 235 231 225 222 219 234 246 253 256 207 252 225 212 241 195 215 209 199 203 214 205 193 206 212 214 215 206 208 214 219 221 220 221 222 223 220 220 223 226 228 230 231 232 235 240 244 247 253 259
194 195 203 209 208 210 210 216 217 220 220 222 220 224 228 238 231 228 223 221 225 225 220 222 235 235 236 233 226 229 220 226 226 231 231 229 230 227 233 222 219 224 241 250 267 244 197 242 228 225 190 213 203 200 207 219 199 194 206 214 218 219 203 211 216 220 222 224 224 224 224 224 224 224 227 229 231 232 233 234 238 243 248 251 258
200 199 206 207 203 206 208 215 220 219 219 221 221 223 225 230 232 230 219 210 221 226 229 229 232 229 230 230 223 219 225 230 241 239 236 230 226 227 224 225 225 228 235 245 251 263 221 234 257 204 187 167 178 198 221 209 188 191 210 212 211 204 205 220 225 225 230 229 228 227 223 223 225 228 229 231 232 233 233 234 238 243 248 250 247
196 203 206 205 202 205 207 212 217 219 219 221 217 223 227 227 226 229 230 217 227 238 236 242 234 225 221 219 219 225 217 221 230 235 236 234 225 222 226 222 227 223 226 238 250 265 262 63 41 60 61 137 196 204 213 200 199 216 215 227 183 199 203 203 198 220 225 230 231 227 223 223 228 231 230 230 232 233 232 234 239 245 246 239 245
192 206 205 202 201 203 208 212 215 219 220 220 215 217 226 233 239 224 219 223 235 240 231 240 230 219 213 217 227 228 216 218 228 238 235 234 224 215 215 216 227 231 219 230 243 249 260 249 212 153 146 188 225 162 207 199 215 174 210 200 199 213 216 198 199 207 214 218 222 227 229 230 230 228 228 231 231 228 231 237 240 242 239 238 242
199 205 201 196 201 202 208 212 211 213 217 219 216 216 223 229 234 237 228 219 226 234 236 235 233 227 228 227 239 242 234 232 236 241 240 238 228 219 223 219 229 235 230 222 231 242 250 257 182 177 163 159 211 206 211 232 216 177 209 215 211 201 217 210 217 219 213 211 213 217 222 225 227 228 231 232 225 227 233 236 239 238 237 238 238
200 201 193 195 198 202 208 208 207 210 212 215 218 218 222 218 222 228 231 231 229 227 226 227 225 223 226 227 239 236 247 247 247 245 247 243 234 233 237 242 233 251 251 235 235 234 234 240 270 185 169 186 241 76 113 123 131 144 177 178 154 215 211 211 213 217 224 221 220 221 223 225 228 231 232 229 224 227 231 234 236 238 237 237 238
194 179 193 192 198 200 203 203 205 208 210 208 212 214 216 218 220 226 229 228 227 229 230 232 225 211 216 221 245 244 231 235 249 246 246 245 243 237 243 247 243 249 276 239 244 259 257 246 261 81 110 136 97 97 130 151 115 95 97 199 206 214 212 224 233 235 214 218 221 223 226 229 229 231 232 228 224 228 231 234 235 237 236 235 241
179 186 190 196 195 199 200 201 201 206 208 209 208 206 206 213 221 223 224 222 221 219 213 208 210 213 221 230 237 235 227 217 232 233 235 240 243 240 243 249 243 249 251 248 217 229 224 249 262 272 208 132 51 38 18 146 156 167 194 204 214 217 207 225 232 250 291 261 235 230 229 232 234 233 232 226 229 233 233 234 237 236 233 231 239
181 188 194 188 194 191 199 193 197 199 203 203 205 203 201 204 210 213 217 213 207 202 208 210 211 211 208 217 226 224 224 221 231 239 244 245 236 243 236 246 242 209 234 234 212 216 218 251 267 233 267 85 114 158 23 205 176 199 207 209 239 213 198 214 235 193 186 243 252 241 231 227 230 233 232 233 237 236 236 238 238 234 227 230 244
186 187 185 185 183 187 187 188 194 190 198 197 199 205 206 199 197 208 208 208 209 212 214 213 205 209 209 208 210 206 199 206 208 226 213 228 205 226 223 203 189 193 218 206 182 190 210 224 241 264 84 116 93 80 126 138 185 253 222 207 232 219 213 205 219 215 199 204 226 237 249 246 244 242 242 241 241 240 239 238 236 228 221 232 245
183 181 175 172 164 177 180 182 185 180 188 197 183 183 195 203 193 203 208 211 206 209 215 214 212 211 213 205 190 174 170 194 202 210 209 205 197 210 201 177 182 188 186 172 178 168 203 215 257 214 165 201 208 176 195 197 210 233 166 193 239 246 181 203 227 209 203 206 226 234 242 227 238 239 239 245 239 236 238 232 221 216 220 238 246
177 176 173 178 179 183 184 197 200 196 201 200 203 197 193 194 199 206 208 210 202 204 200 207 219 215 205 173 139 149 174 191 199 204 209 207 206 204 179 174 173 173 180 174 180 190 188 206 233 214 224 236 223 211 217 217 196 135 158 177 223 217 85 244 270 224 187 199 204 234 243 223 221 246 232 241 223 205 225 233 214 206 225 238 245
174 172 173 184 193 188 195 202 210 214 211 202 201 206 209 205 196 199 203 209 206 196 190 205 224 218 191 184 181 175 172 182 195 199 191 172 172 178 167 180 178 170 169 181 198 181 192 209 212 200 223 242 239 210 217 213 179 199 216 191 213 159 209 229 258 319 179 187 206 234 258 206 191 235 240 240 218 199 212 222 221 224 228 234 239
183 171 186 193 187 193 194 203 216 217 218 206 206 208 204 203 197 195 196 203 193 193 194 207 212 184 182 186 216 186 182 181 177 154 127 132 142 151 163 176 184 183 164 172 175 182 190 198 221 231 225 235 245 203 219 168 219 209 211 203 207 212 221 228 249 249 281 181 198 211 255 218 192 230 251 246 217 204 215 218 226 229 229 231 236
170 194 202 190 202 197 195 201 211 210 216 205 202 201 197 195 193 185 182 184 181 192 193 197 189 183 175 179 185 202 183 170 154 152 145 129 113 118 122 130 137 161 160 152 157 164 160 184 212 239 219 227 241 242 197 197 136 202 179 216 227 224 226 232 241 251 275 203 179 232 259 248 173 227 241 253 215 209 228 233 232 229 229 233 237
198 203 195 200 198 201 202 204 212 216 218 213 209 202 200 198 195 186 187 186 187 185 189 186 182 180 185 179 175 187 192 171 166 155 150 148 142 126 129 147 147 137 140 175 160 138 163 194 199 238 236 159 248 212 198 138 138 211 194 236 213 211 209 228 241 230 138 160 186 158 282 263 219 219 248 278 147 221 216 230 234 230 230 237 241
197 198 193 195 199 195 197 197 203 211 216 207 209 203 200 195 191 184 180 176 175 181 177 178 185 184 184 184 172 172 177 186 178 161 157 158 139 141 146 135 108 99 135 143 131 161 180 185 211 240 269 232 257 283 225 182 214 210 189 209 204 199 191 53 29 90 58 203 242 143 254 291 331 242 255 259 156 226 215 232 233 234 237 243 244
199 187 200 193 193 193 192 192 197 209 207 196 197 196 193 193 185 175 171 175 176 175 178 187 189 184 174 171 168 174 178 181 178 162 163 145 140 148 146 127 94 79 50 8 104 184 174 185 195 206 223 220 207 204 185 193 175 129 108 74 73 86 122 210 246 304 231 241 195 189 254 276 197 168 265 311 191 244 230 216 235 238 241 247 249
194 198 198 195 190 187 192 195 195 204 205 195 192 190 191 188 175 170 169 170 174 177 189 185 177 169 169 172 166 172 175 183 179 165 155 142 141 155 153 144 150 141 161 272 22 101 163 180 190 197 205 213 223 231 218 194 172 151 109 121 204 140 140 222 257 215 254 202 222 188 208 281 184 173 285 246 219 246 240 233 228 247 254 258 252
199 202 186 187 193 194 193 198 194 192 205 194 191 190 190 188 178 176 176 175 184 180 165 157 159 165 166 169 170 173 171 168 170 171 166 152 160 166 158 147 138 111 206 201 64 24 46 70 62 70 80 265 243 237 227 208 173 155 143 197 206 153 195 198 238 209 265 278 251 157 131 232 282 186 257 266 306 250 294 351 44 286 275 271 267
202 179 183 190 196 200 202 195 192 194 200 196 191 191 190 187 180 174 172 172 173 178 163 159 158 149 157 174 183 176 162 161 170 177 178 168 166 168 161 139 139 166 251 169 140 129 82 57 11 23 18 6 2 338 278 259 178 181 183 168 144 149 195 210 225 298 327 287 255 177 173 272 62 284 127 335 330 273 120 280 328 305 313 319 332